LZM453 LIBD-LGAV

Flight info

Callsign LZM453
Flight time 0h 59m
Altitude 35000
Route DOLON DCT KAPPO DCT NOSTO UN7 NEMES
Aircraft A320/M-SDE3FGHIRWY/LB1

Departure

Time 2026-05-05 17:17
Airport Bari Karol Wojtyła International Airport (LIBD)

Arrival

Time 2026-05-05 18:17
Airport Athens Eleftherios Venizelos International Airport (LGAV)
Time Latitude Longitude Altitude Speed Heading
2026-05-05 16:42 41.13491 16.76240 159 ft 0 kts 159°
2026-05-05 17:06 41.13495 16.76237 159 ft 3 kts 160°
2026-05-05 17:06 41.13521 16.76226 159 ft 4 kts 166°
2026-05-05 17:06 41.13547 16.76220 158 ft 4 kts 183°
2026-05-05 17:06 41.13569 16.76229 158 ft 4 kts 238°
2026-05-05 17:07 41.13572 16.76234 158 ft 0 kts 249°
2026-05-05 17:10 41.13570 16.76227 158 ft 2 kts 249°
2026-05-05 17:10 41.13563 16.76201 158 ft 4 kts 249°
2026-05-05 17:10 41.13552 16.76158 158 ft 6 kts 255°
2026-05-05 17:11 41.13564 16.76102 158 ft 7 kts 313°
2026-05-05 17:11 41.13611 16.76054 158 ft 10 kts 322°
2026-05-05 17:11 41.13638 16.75969 158 ft 12 kts 262°
2026-05-05 17:11 41.13605 16.75849 158 ft 16 kts 249°
2026-05-05 17:12 41.13562 16.75697 158 ft 20 kts 249°
2026-05-05 17:12 41.13509 16.75512 158 ft 23 kts 249°
2026-05-05 17:12 41.13448 16.75293 158 ft 27 kts 250°
2026-05-05 17:12 41.13376 16.75041 158 ft 31 kts 249°
2026-05-05 17:13 41.13296 16.74759 158 ft 34 kts 249°
2026-05-05 17:13 41.13224 16.74508 158 ft 17 kts 249°
2026-05-05 17:13 41.13184 16.74366 157 ft 11 kts 249°
2026-05-05 17:13 41.13168 16.74250 157 ft 14 kts 287°
2026-05-05 17:14 41.13225 16.74126 152 ft 13 kts 314°
2026-05-05 17:14 41.13305 16.74125 148 ft 12 kts 54°
2026-05-05 17:14 41.13321 16.74182 149 ft 0 kts 69°
2026-05-05 17:14 41.13321 16.74183 149 ft 0 kts 69°
2026-05-05 17:16 41.13325 16.74197 149 ft 5 kts 70°
2026-05-05 17:16 41.13397 16.74454 150 ft 64 kts 69°
2026-05-05 17:16 41.13534 16.74940 148 ft 105 kts 69°
2026-05-05 17:17 41.13853 16.76064 155 ft 154 kts 69°
2026-05-05 17:17 41.14246 16.77414 608 ft 155 kts 69°
2026-05-05 17:17 41.14657 16.78749 1118 ft 160 kts 70°
2026-05-05 17:17 41.15087 16.80109 1648 ft 157 kts 68°
2026-05-05 17:18 41.15538 16.81496 1907 ft 173 kts 68°
2026-05-05 17:18 41.16031 16.83066 2122 ft 195 kts 70°
2026-05-05 17:18 41.16551 16.84815 2446 ft 214 kts 70°
2026-05-05 17:18 41.17121 16.86775 2749 ft 240 kts 71°
2026-05-05 17:19 41.17660 16.88976 3155 ft 261 kts 83°
2026-05-05 17:19 41.17515 16.91392 3835 ft 267 kts 111°
2026-05-05 17:19 41.16549 16.93486 4643 ft 270 kts 131°
2026-05-05 17:19 41.15336 16.95418 5461 ft 275 kts 132°
2026-05-05 17:20 41.14091 16.97374 6257 ft 281 kts 132°
2026-05-05 17:20 41.12812 16.99373 7009 ft 287 kts 131°
2026-05-05 17:20 41.11515 17.01404 7801 ft 290 kts 131°
2026-05-05 17:20 41.10201 17.03471 8578 ft 295 kts 131°
2026-05-05 17:21 41.08874 17.05566 9342 ft 299 kts 131°
2026-05-05 17:21 41.07523 17.07694 10091 ft 303 kts 131°
2026-05-05 17:21 41.06132 17.09885 10468 ft 322 kts 131°
2026-05-05 17:22 41.03050 17.14738 10767 ft 367 kts 131°
2026-05-05 17:22 41.01384 17.17370 11189 ft 377 kts 131°
2026-05-05 17:22 40.99684 17.20052 11802 ft 382 kts 131°
2026-05-05 17:22 40.97967 17.22754 12443 ft 386 kts 131°
2026-05-05 17:23 40.96223 17.25484 13090 ft 389 kts 131°
2026-05-05 17:23 40.94468 17.28230 13727 ft 393 kts 131°
2026-05-05 17:23 40.92697 17.30999 14296 ft 396 kts 131°
2026-05-05 17:23 40.90907 17.33796 14842 ft 400 kts 131°
2026-05-05 17:24 40.89103 17.36619 15390 ft 403 kts 131°
2026-05-05 17:24 40.87288 17.39459 15937 ft 407 kts 131°
2026-05-05 17:24 40.85472 17.42294 16427 ft 412 kts 131°
2026-05-05 17:24 40.83583 17.45235 16971 ft 416 kts 131°
2026-05-05 17:25 40.81727 17.48123 17521 ft 420 kts 131°
2026-05-05 17:25 40.80446 17.50115 17912 ft 422 kts 131°
2026-05-05 17:25 40.77911 17.54054 18635 ft 428 kts 131°
2026-05-05 17:25 40.75974 17.57063 19127 ft 432 kts 132°
2026-05-05 17:26 40.74021 17.60092 19621 ft 436 kts 132°
2026-05-05 17:26 40.72048 17.63151 20107 ft 440 kts 132°
2026-05-05 17:26 40.70061 17.66234 20576 ft 443 kts 132°
2026-05-05 17:26 40.68054 17.69339 21012 ft 447 kts 133°
2026-05-05 17:27 40.66022 17.72472 21446 ft 451 kts 133°
2026-05-05 17:27 40.63977 17.75619 21853 ft 455 kts 133°
2026-05-05 17:27 40.61906 17.78804 22190 ft 460 kts 133°
2026-05-05 17:27 40.59819 17.82016 22565 ft 464 kts 133°
2026-05-05 17:28 40.57716 17.85251 22971 ft 465 kts 132°
2026-05-05 17:28 40.55616 17.88482 23496 ft 465 kts 132°
2026-05-05 17:28 40.53511 17.91719 23868 ft 467 kts 132°
2026-05-05 17:28 40.51394 17.94973 24191 ft 469 kts 132°
2026-05-05 17:29 40.49270 17.98237 24500 ft 471 kts 133°
2026-05-05 17:29 40.47129 18.01516 24802 ft 474 kts 133°
2026-05-05 17:29 40.44974 18.04807 25117 ft 476 kts 133°
2026-05-05 17:29 40.42803 18.08114 25417 ft 479 kts 133°
2026-05-05 17:30 40.40620 18.11435 25713 ft 482 kts 133°
2026-05-05 17:30 40.38450 18.14735 26013 ft 484 kts 133°
2026-05-05 17:30 40.36247 18.18089 26301 ft 487 kts 133°
2026-05-05 17:30 40.34032 18.21458 26588 ft 489 kts 133°
2026-05-05 17:31 40.31802 18.24841 26919 ft 490 kts 133°
2026-05-05 17:31 40.29577 18.28212 27346 ft 489 kts 133°
2026-05-05 17:31 40.27354 18.31584 27772 ft 488 kts 133°
2026-05-05 17:31 40.25129 18.34955 28186 ft 488 kts 133°
2026-05-05 17:32 40.22908 18.38317 28595 ft 488 kts 133°
2026-05-05 17:32 40.20681 18.41676 29011 ft 488 kts 133°
2026-05-05 17:32 40.18454 18.45027 29401 ft 489 kts 133°
2026-05-05 17:32 40.16217 18.48387 29772 ft 490 kts 133°
2026-05-05 17:33 40.13977 18.51752 30171 ft 490 kts 133°
2026-05-05 17:33 40.11741 18.55112 30531 ft 490 kts 133°
2026-05-05 17:33 40.09530 18.58438 30885 ft 490 kts 133°
2026-05-05 17:33 40.07293 18.61800 31250 ft 490 kts 133°
2026-05-05 17:34 40.05057 18.65158 31609 ft 491 kts 133°
2026-05-05 17:34 40.02816 18.68519 31969 ft 491 kts 133°
2026-05-05 17:34 40.00574 18.71875 32331 ft 491 kts 133°
2026-05-05 17:34 39.98327 18.75226 32699 ft 491 kts 133°
2026-05-05 17:35 39.96082 18.78569 33070 ft 490 kts 132°
2026-05-05 17:35 39.93834 18.81916 33459 ft 490 kts 132°
2026-05-05 17:35 39.91592 18.85259 33848 ft 489 kts 131°
2026-05-05 17:35 39.89353 18.88596 34200 ft 489 kts 132°
2026-05-05 17:36 39.87111 18.91926 34531 ft 488 kts 132°
2026-05-05 17:36 39.84872 18.95248 34870 ft 487 kts 132°
2026-05-05 17:36 39.82637 18.98563 35064 ft 487 kts 132°
2026-05-05 17:37 39.78494 19.05667 35098 ft 498 kts 126°
2026-05-05 17:37 39.74418 19.12983 35116 ft 500 kts 126°
2026-05-05 17:38 39.70332 19.20296 35113 ft 500 kts 126°
2026-05-05 17:38 39.66239 19.27597 35117 ft 500 kts 126°
2026-05-05 17:39 39.62130 19.34892 35110 ft 500 kts 126°
2026-05-05 17:39 39.58017 19.42173 35121 ft 501 kts 126°
2026-05-05 17:40 39.53899 19.49446 35139 ft 501 kts 126°
2026-05-05 17:40 39.49777 19.56725 35139 ft 501 kts 126°
2026-05-05 17:41 39.45659 19.63995 35138 ft 501 kts 126°
2026-05-05 17:41 39.41529 19.71265 35120 ft 501 kts 126°
2026-05-05 17:42 39.37398 19.78508 35135 ft 500 kts 126°
2026-05-05 17:42 39.33288 19.85693 35142 ft 501 kts 126°
2026-05-05 17:43 39.29111 19.92968 35142 ft 501 kts 126°
2026-05-05 17:43 39.24956 20.00200 35144 ft 501 kts 126°
2026-05-05 17:44 39.20831 20.07382 35141 ft 501 kts 126°
2026-05-05 17:44 39.16677 20.14607 35146 ft 502 kts 126°
2026-05-05 17:45 39.12508 20.21819 35135 ft 502 kts 126°
2026-05-05 17:45 39.08325 20.29022 35129 ft 502 kts 126°
2026-05-05 17:46 39.04135 20.36218 35135 ft 502 kts 126°
2026-05-05 17:46 38.99954 20.43412 35139 ft 502 kts 126°
2026-05-05 17:47 38.95761 20.50602 35141 ft 503 kts 126°
2026-05-05 17:47 38.91559 20.57789 35136 ft 503 kts 126°
2026-05-05 17:48 38.87351 20.64979 35121 ft 503 kts 126°
2026-05-05 17:48 38.83137 20.72161 35126 ft 504 kts 126°
2026-05-05 17:49 38.78923 20.79334 35132 ft 504 kts 126°
2026-05-05 17:49 38.74701 20.86490 35137 ft 505 kts 126°
2026-05-05 17:50 38.70454 20.93657 35124 ft 505 kts 126°
2026-05-05 17:50 38.66221 21.00782 35129 ft 506 kts 126°
2026-05-05 17:51 38.61966 21.07946 35125 ft 506 kts 126°
2026-05-05 17:51 38.57709 21.15103 35147 ft 506 kts 126°
2026-05-05 17:52 38.53452 21.22255 35124 ft 507 kts 126°
2026-05-05 17:52 38.49201 21.29372 35125 ft 508 kts 126°
2026-05-05 17:53 38.44906 21.36534 35126 ft 507 kts 126°
2026-05-05 17:53 38.40622 21.43681 35129 ft 507 kts 126°
2026-05-05 17:54 38.36321 21.50826 35127 ft 507 kts 127°
2026-05-05 17:54 38.32016 21.57950 35140 ft 507 kts 127°
2026-05-05 17:55 38.27714 21.65064 35143 ft 507 kts 127°
2026-05-05 17:55 38.23408 21.72179 35146 ft 507 kts 127°
2026-05-05 17:56 38.19101 21.79282 35152 ft 507 kts 126°
2026-05-05 17:56 38.14786 21.86391 35135 ft 508 kts 126°
2026-05-05 17:57 38.10464 21.93486 35125 ft 508 kts 127°
2026-05-05 17:57 38.06129 22.00568 34541 ft 507 kts 126°
2026-05-05 17:57 38.03959 22.04111 33808 ft 508 kts 126°
2026-05-05 17:58 38.01788 22.07653 32976 ft 509 kts 126°
2026-05-05 17:58 37.99609 22.11206 32158 ft 511 kts 126°
2026-05-05 17:58 37.97426 22.14759 31011 ft 510 kts 126°
2026-05-05 17:58 37.95229 22.18332 29634 ft 517 kts 126°
2026-05-05 17:59 37.93016 22.21930 28252 ft 518 kts 127°
2026-05-05 17:59 37.90799 22.25532 26916 ft 520 kts 127°
2026-05-05 17:59 37.88569 22.29150 25848 ft 521 kts 127°
2026-05-05 17:59 37.86340 22.32757 25002 ft 517 kts 128°
2026-05-05 18:00 37.84877 22.35121 24553 ft 513 kts 128°
2026-05-05 18:00 37.82692 22.38654 23866 ft 506 kts 128°
2026-05-05 18:00 37.80540 22.42136 23059 ft 500 kts 128°
2026-05-05 18:00 37.77723 22.46675 22063 ft 491 kts 127°
2026-05-05 18:01 37.75628 22.50046 21345 ft 485 kts 127°
2026-05-05 18:01 37.74230 22.52295 20869 ft 480 kts 127°
2026-05-05 18:01 37.72184 22.55605 20141 ft 474 kts 125°
2026-05-05 18:01 37.70397 22.59063 19426 ft 467 kts 117°
2026-05-05 18:02 37.68985 22.62712 18774 ft 460 kts 111°
2026-05-05 18:02 37.67684 22.66377 18092 ft 455 kts 112°
2026-05-05 18:02 37.66396 22.69997 17425 ft 449 kts 111°
2026-05-05 18:02 37.65499 22.73714 16849 ft 439 kts 97°
2026-05-05 18:03 37.65031 22.77490 16245 ft 432 kts 95°
2026-05-05 18:03 37.64597 22.81226 15689 ft 427 kts 95°
2026-05-05 18:03 37.64177 22.84864 15152 ft 422 kts 95°
2026-05-05 18:03 37.63759 22.88504 14624 ft 417 kts 95°
2026-05-05 18:04 37.63349 22.92098 14082 ft 412 kts 95°
2026-05-05 18:04 37.62965 22.95659 13479 ft 407 kts 91°
2026-05-05 18:04 37.62941 22.99188 12869 ft 399 kts 85°
2026-05-05 18:04 37.63029 23.02664 12282 ft 394 kts 85°
2026-05-05 18:05 37.63127 23.06087 11648 ft 389 kts 85°
2026-05-05 18:05 37.63224 23.09473 11041 ft 383 kts 85°
2026-05-05 18:05 37.63319 23.12811 10412 ft 379 kts 85°
2026-05-05 18:05 37.63407 23.16066 10221 ft 362 kts 85°
2026-05-05 18:06 37.63498 23.19162 10099 ft 344 kts 82°
2026-05-05 18:06 37.63769 23.21079 10017 ft 327 kts 71°
2026-05-05 18:06 37.64628 23.24541 9822 ft 293 kts 69°
2026-05-05 18:06 37.65229 23.26944 9378 ft 283 kts 69°
2026-05-05 18:07 37.65826 23.29293 8768 ft 280 kts 69°
2026-05-05 18:07 37.66426 23.31626 8155 ft 279 kts 69°
2026-05-05 18:07 37.67020 23.33944 7560 ft 277 kts 70°
2026-05-05 18:07 37.67607 23.36247 6975 ft 275 kts 70°
2026-05-05 18:08 37.68189 23.38535 6408 ft 273 kts 70°
2026-05-05 18:08 37.68766 23.40807 5815 ft 271 kts 71°
2026-05-05 18:08 37.69334 23.43066 5235 ft 269 kts 70°
2026-05-05 18:08 37.69902 23.45311 4665 ft 267 kts 70°
2026-05-05 18:09 37.70469 23.47547 4070 ft 266 kts 70°
2026-05-05 18:09 37.71032 23.49771 3496 ft 266 kts 70°
2026-05-05 18:09 37.71590 23.51983 3087 ft 264 kts 70°
2026-05-05 18:09 37.72155 23.54207 2990 ft 267 kts 70°
2026-05-05 18:10 37.72722 23.56447 3002 ft 268 kts 70°
2026-05-05 18:10 37.73289 23.58699 3003 ft 268 kts 70°
2026-05-05 18:10 37.73852 23.60940 3004 ft 268 kts 70°
2026-05-05 18:10 37.74417 23.63181 3003 ft 268 kts 70°
2026-05-05 18:11 37.74975 23.65390 2997 ft 257 kts 70°
2026-05-05 18:11 37.75502 23.67485 3002 ft 242 kts 70°
2026-05-05 18:11 37.75988 23.69421 3002 ft 227 kts 70°
2026-05-05 18:11 37.76464 23.71307 3005 ft 224 kts 70°
2026-05-05 18:12 37.76938 23.73183 3006 ft 224 kts 70°
2026-05-05 18:12 37.77406 23.75060 3010 ft 224 kts 70°
2026-05-05 18:12 37.77872 23.76925 3007 ft 219 kts 71°
2026-05-05 18:12 37.78469 23.78603 3008 ft 203 kts 52°
2026-05-05 18:13 37.79444 23.79846 3007 ft 197 kts 35°
2026-05-05 18:13 37.80539 23.80877 3002 ft 196 kts 35°
2026-05-05 18:13 37.81634 23.81914 2855 ft 198 kts 35°
2026-05-05 18:13 37.82742 23.82963 2626 ft 199 kts 36°
2026-05-05 18:14 37.83837 23.84000 2388 ft 195 kts 36°
2026-05-05 18:14 37.84916 23.85022 2107 ft 186 kts 36°
2026-05-05 18:14 37.85921 23.85975 1864 ft 174 kts 36°
2026-05-05 18:14 37.86840 23.86847 1648 ft 161 kts 36°
2026-05-05 18:15 37.87716 23.87678 1443 ft 155 kts 36°
2026-05-05 18:15 37.88570 23.88487 1241 ft 152 kts 36°
2026-05-05 18:15 37.89412 23.89286 1032 ft 150 kts 36°
2026-05-05 18:15 37.90240 23.90071 828 ft 147 kts 36°
2026-05-05 18:16 37.91057 23.90845 623 ft 146 kts 36°
2026-05-05 18:16 37.91865 23.91611 430 ft 145 kts 37°
2026-05-05 18:16 37.92662 23.92381 305 ft 142 kts 36°
2026-05-05 18:16 37.93339 23.93023 290 ft 98 kts 38°
2026-05-05 18:17 37.93713 23.93381 293 ft 37 kts 36°
2026-05-05 18:17 37.93877 23.93569 294 ft 31 kts 56°
2026-05-05 18:17 37.93956 23.93768 298 ft 17 kts 66°
2026-05-05 18:17 37.94004 23.93903 302 ft 18 kts 66°
2026-05-05 18:18 37.94091 23.94016 302 ft 19 kts 37°
2026-05-05 18:18 37.94204 23.94122 301 ft 21 kts 37°
2026-05-05 18:18 37.94324 23.94237 302 ft 23 kts 37°
2026-05-05 18:18 37.94459 23.94364 302 ft 25 kts 37°
2026-05-05 18:19 37.94585 23.94484 303 ft 19 kts 37°
2026-05-05 18:19 37.94661 23.94555 302 ft 11 kts 37°
2026-05-05 18:19 37.94674 23.94648 302 ft 13 kts 122°
2026-05-05 18:19 37.94612 23.94745 303 ft 15 kts 123°
2026-05-05 18:20 37.94544 23.94865 301 ft 18 kts 127°
2026-05-05 18:20 37.94462 23.95000 303 ft 21 kts 127°
2026-05-05 18:20 37.94370 23.95155 301 ft 23 kts 127°
2026-05-05 18:20 37.94269 23.95324 304 ft 25 kts 127°
2026-05-05 18:21 37.94201 23.95439 300 ft 16 kts 127°
2026-05-05 18:21 37.94148 23.95526 301 ft 9 kts 127°
2026-05-05 18:21 37.94097 23.95560 301 ft 9 kts 197°
2026-05-05 18:21 37.94042 23.95510 302 ft 10 kts 218°
2026-05-05 18:22 37.93982 23.95452 300 ft 12 kts 217°
2026-05-05 18:22 37.93913 23.95383 302 ft 12 kts 227°
2026-05-05 18:22 37.93876 23.95285 302 ft 12 kts 248°
2026-05-05 18:22 37.93835 23.95188 300 ft 13 kts 227°
2026-05-05 18:23 37.93764 23.95117 302 ft 13 kts 217°
2026-05-05 18:23 37.93687 23.95044 301 ft 14 kts 217°
2026-05-05 18:23 37.93607 23.94966 301 ft 15 kts 218°
2026-05-05 18:23 37.93567 23.94906 301 ft 8 kts 282°
2026-05-05 18:24 37.93591 23.94862 302 ft 1 kts 306°
2026-05-05 18:24 37.93597 23.94852 301 ft 2 kts 307°
2026-05-05 18:24 37.93605 23.94839 302 ft 2 kts 307°
2026-05-05 18:24 37.93609 23.94832 304 ft 0 kts 307°